Theta_e
324 322 324 323 320 323 326 331 336 335 334 334 337 338 340 339 337 335 333 340 339 337 334 331 326 324 323 322 320 319 316 311 307 309 311 311 311 311 311 311 311 311 312 313
322 325 324 323 323 331 333 334 335 333 332 333 335 335 334 334 335 333 331 335 339 337 334 332 326 324 323 322 320 318 316 311 308 308 309 310 310 310 311 311 312 313 313 311
325 326 324 325 331 333 333 333 334 335 335 334 334 334 334 333 334 336 334 336 339 338 335 332 326 324 324 322 319 317 315 312 309 309 311 312 312 312 311 312 313 313 311 310
325 324 325 325 329 328 332 331 333 334 329 333 332 332 332 332 330 332 335 333 338 338 335 333 326 324 324 322 319 316 315 313 311 312 312 311 311 311 313 314 313 311 310 310
326 325 326 326 328 329 332 330 331 330 331 332 334 331 327 332 332 330 331 332 336 337 336 332 325 325 324 322 319 317 316 314 313 310 312 312 312 312 311 311 312 311 310 310
324 326 325 326 329 330 329 328 326 326 325 330 332 331 332 332 332 331 333 334 336 336 335 330 325 325 324 322 320 317 316 314 313 311 313 313 314 314 313 311 311 311 310 310
324 327 326 331 330 328 326 325 329 331 330 331 332 334 330 329 328 332 334 335 336 336 333 325 325 324 324 322 319 317 315 314 313 311 313 314 314 314 313 311 312 311 310 310
325 328 327 325 329 329 328 324 326 332 328 329 332 336 334 329 330 332 335 337 335 334 331 325 325 324 324 321 319 318 315 314 314 311 312 314 314 314 313 311 312 310 309 309
329 329 330 329 325 326 328 327 323 329 330 334 333 333 330 330 331 328 331 332 332 332 326 325 325 324 323 320 319 318 315 314 314 312 312 312 313 314 313 311 312 311 310 309
326 331 332 331 328 326 326 322 325 323 332 336 334 336 336 333 332 325 323 327 329 328 325 326 324 324 322 320 319 318 316 314 314 314 314 313 312 313 314 313 311 311 310 309
328 330 331 331 330 328 325 325 321 322 327 332 334 332 331 331 330 327 324 327 328 325 325 325 324 323 321 319 319 318 316 314 315 314 314 313 313 312 313 314 313 311 310 308
328 326 330 331 328 328 325 324 321 324 328 329 329 331 330 329 330 331 326 326 326 325 326 325 324 322 321 319 318 319 316 314 314 315 314 314 313 312 312 313 314 311 310 308
327 327 328 327 326 326 329 325 322 322 324 332 333 327 331 330 330 331 329 327 326 326 326 325 323 322 321 319 318 319 315 313 314 315 314 314 314 313 313 312 314 313 311 309
328 324 326 328 326 325 330 327 325 325 327 327 331 330 333 331 330 330 328 327 326 326 325 324 323 322 321 319 318 318 315 315 314 315 315 314 314 314 313 313 314 314 312 311
323 328 327 326 328 329 330 328 326 327 326 330 328 332 331 331 328 332 330 328 326 325 325 324 323 322 321 320 317 318 316 316 316 315 315 314 314 314 313 313 314 315 313 311
323 325 330 331 331 330 332 328 327 327 330 334 333 333 329 332 331 330 330 328 326 325 324 324 323 322 322 320 316 318 316 316 316 315 314 315 314 314 314 313 314 314 313 313
326 327 326 329 331 329 329 330 328 331 331 332 334 331 329 329 330 330 330 330 328 325 324 324 324 323 323 320 315 317 316 317 316 315 314 315 315 313 314 314 313 314 314 314
324 324 322 325 328 331 327 329 328 333 332 330 330 329 330 331 332 331 330 329 327 325 324 324 324 323 323 319 315 316 315 316 316 315 314 314 315 314 314 315 313 314 313 313
324 325 327 329 328 327 330 332 332 334 333 328 329 330 331 330 331 331 331 331 331 330 325 325 324 324 323 317 314 315 316 317 316 313 313 314 315 314 314 314 314 313 313 314
328 324 327 328 332 333 330 330 330 328 331 328 328 330 329 329 331 328 331 331 330 328 326 325 324 324 322 316 314 315 316 317 316 312 313 314 314 313 313 313 313 313 313 313
331 330 333 331 332 331 328 331 331 331 331 327 329 330 329 327 330 329 328 327 326 325 325 324 324 323 319 320 316 314 315 314 314 312 313 313 313 314 314 314 314 314 314 314
332 332 332 332 334 333 332 332 332 332 329 327 328 329 330 329 330 326 327 326 325 326 324 323 322 321 321 322 320 319 316 314 314 313 312 313 314 315 315 315 315 315 315 315
330 328 331 329 328 329 330 332 333 332 331 328 328 327 328 329 326 327 326 327 327 327 324 322 321 321 322 322 322 321 319 319 317 316 316 314 312 313 315 316 316 316 315 315
329 330 327 328 328 329 333 335 334 332 331 330 327 322 326 325 324 324 327 327 327 327 324 323 323 322 322 323 323 321 321 322 322 321 320 319 319 317 313 315 315 315 316 316
327 330 328 329 329 332 332 334 333 332 329 328 326 323 324 324 325 324 325 326 327 327 324 324 323 323 322 322 322 320 320 321 321 321 322 321 320 320 321 319 315 316 317 318
330 327 328 326 331 333 333 335 331 331 329 328 327 325 324 325 329 328 327 327 327 327 325 324 323 323 321 322 322 320 320 320 318 319 319 320 321 321 322 322 322 320 318 318
Wind_Speed
2 6 1 7 10 4 7 6 6 2 3 6 2 4 5 3 7 9 8 13 13 12 7 5 0 3 7 11 15 21 26 24 15 9 9 9 11 11 11 13 15 16 16 17
5 1 4 4 6 7 6 11 4 4 3 5 2 3 2 6 6 12 14 18 15 12 12 8 5 4 5 8 13 19 24 23 18 12 12 12 12 12 12 13 14 15 17 20
5 4 6 6 5 7 2 7 6 7 5 7 4 3 2 1 5 8 9 13 17 16 14 13 8 4 4 7 11 16 21 20 16 13 12 11 11 10 9 11 14 16 19 20
2 2 4 6 3 3 2 7 8 14 3 2 1 3 4 3 5 8 14 12 17 19 17 14 9 5 5 6 7 13 17 17 17 10 11 11 11 11 12 13 14 17 19 20
6 5 3 4 1 5 1 10 8 5 6 5 1 2 5 2 6 8 18 18 20 20 19 14 9 4 6 3 5 11 15 14 16 9 10 12 11 11 11 11 13 16 19 19
3 2 1 3 6 8 9 9 9 5 3 2 3 4 4 5 7 5 16 20 24 18 17 15 9 7 7 4 4 8 12 12 14 9 8 9 10 11 12 11 12 16 19 17
6 3 3 17 10 1 6 6 3 2 3 4 4 1 7 6 8 12 21 21 22 17 18 17 11 8 8 3 4 6 9 8 12 8 6 8 10 10 13 13 13 17 18 17
3 4 4 3 6 8 6 6 5 3 3 3 1 4 5 5 11 13 18 21 20 21 22 17 10 8 7 3 3 5 7 5 10 9 6 7 9 9 12 13 12 15 17 16
4 4 3 2 3 6 4 2 4 7 3 2 2 6 5 3 1 5 14 18 21 22 19 15 11 9 8 4 2 3 4 2 6 8 7 7 8 8 10 11 11 13 15 15
5 1 0 2 4 8 3 6 3 4 1 2 4 5 5 6 8 6 13 23 25 24 20 16 13 10 8 4 3 2 2 1 1 6 7 8 9 8 9 11 10 12 14 14
4 4 4 2 2 7 1 1 7 5 4 4 1 6 7 10 12 12 21 26 27 25 21 17 14 12 8 5 3 2 3 3 3 2 5 7 9 8 8 10 10 12 13 14
4 5 3 4 3 1 1 3 5 5 4 1 3 6 1 6 13 21 24 27 26 23 20 17 16 13 9 6 4 4 4 4 4 4 4 4 7 9 9 9 9 11 12 13
7 2 3 7 6 2 2 2 5 5 3 5 4 6 1 3 10 20 22 27 27 24 22 21 20 15 10 6 4 4 5 3 4 6 6 6 6 8 10 8 8 9 10 12
5 3 6 7 6 3 3 4 4 5 4 4 6 5 3 4 7 13 21 26 27 28 26 24 20 16 11 8 6 5 3 2 4 6 8 8 8 7 8 8 8 9 9 10
4 3 3 4 3 2 3 4 8 7 4 5 4 7 5 9 13 24 27 24 24 29 29 27 21 16 12 10 9 8 5 3 4 7 7 7 7 8 8 8 6 9 10 10
3 2 1 1 4 5 4 2 7 2 3 2 2 4 7 10 16 14 22 25 27 31 31 27 21 17 13 10 9 8 6 5 6 7 6 5 6 7 5 7 8 8 9 11
3 5 3 3 4 6 4 4 4 4 4 6 4 7 5 5 15 22 23 26 30 31 32 27 21 16 11 10 7 7 6 7 7 8 6 6 7 6 5 7 7 7 9 11
5 4 3 2 4 1 6 4 6 3 2 5 2 4 7 8 16 18 21 26 29 29 29 23 20 16 12 10 8 6 7 7 8 8 7 7 7 6 7 9 7 6 9 12
3 5 4 3 2 4 6 2 2 4 5 3 4 2 3 0 2 12 14 23 27 27 22 19 16 13 11 10 8 6 7 6 8 8 8 7 6 6 8 8 8 7 10 12
5 7 4 2 2 4 5 6 2 3 4 2 2 5 4 4 1 7 8 14 16 14 15 15 14 15 11 8 9 8 6 6 8 7 7 7 6 2 3 5 3 7 11 13
4 4 4 2 2 5 6 5 6 3 6 7 10 9 8 4 7 10 7 2 6 10 9 12 15 10 6 5 6 7 7 7 6 7 7 6 7 7 6 7 10 14 16 17
4 5 3 2 2 6 0 2 3 5 5 11 12 10 12 9 6 1 4 8 11 10 9 9 9 9 8 7 5 4 6 3 5 7 8 8 9 10 11 13 14 16 19 19
1 5 4 8 6 5 2 6 7 8 9 15 12 10 12 12 7 8 12 12 10 9 6 5 6 9 11 10 10 6 3 3 5 8 9 9 10 12 14 17 18 19 18 18
3 4 3 2 2 5 6 8 9 8 10 9 12 11 13 12 9 10 12 13 13 13 10 9 9 12 13 13 12 7 5 8 10 12 12 13 14 14 15 17 18 19 18 18
4 7 4 4 7 4 2 3 3 4 6 10 13 14 13 15 14 12 15 17 16 14 12 11 9 10 9 12 14 9 8 11 14 15 16 18 18 19 20 21 21 20 20 19
7 5 5 5 6 3 1 5 3 6 7 8 12 17 19 20 13 12 15 11 18 18 13 12 12 12 9 14 16 13 14 15 18 20 22 22 22 23 25 27 27 24 23 22
Wind_Direction
29 78 150 236 222 194 122 109 115 72 105 83 20 99 119 212 250 266 238 226 202 170 180 200 63 333 348 21 25 23 21 22 26 29 23 20 16 9 1 360 3 3 1 356
25 40 196 107 94 115 105 117 93 70 57 91 156 96 159 182 220 241 246 227 210 189 200 212 223 280 340 15 20 24 22 20 24 30 25 20 15 11 10 11 9 4 356 352
115 259 316 131 122 115 104 134 169 139 122 52 108 355 290 178 240 262 226 227 226 210 213 215 220 267 318 8 17 23 21 21 28 35 32 22 11 14 11 14 9 2 356 355
222 293 38 98 155 84 120 140 122 126 109 153 23 264 284 256 276 225 213 209 206 216 221 220 219 264 316 355 11 21 20 20 24 34 29 26 28 29 21 11 6 2 0 1
263 340 42 95 50 95 64 102 99 95 93 108 251 68 261 119 267 249 236 224 210 213 223 218 219 270 291 309 6 16 12 15 19 20 26 27 25 22 14 5 3 1 1 2
245 309 167 99 39 95 153 81 47 49 75 45 243 160 265 194 208 236 224 218 210 206 212 209 209 249 261 267 357 7 9 14 11 14 23 15 15 17 12 8 6 3 0 4
347 351 64 105 83 6 94 78 35 336 7 215 200 110 246 235 212 209 202 206 208 208 202 203 215 243 246 248 339 357 6 17 14 16 7 5 2 2 4 3 6 4 3 6
107 352 164 173 162 176 179 151 151 237 213 249 231 224 253 264 270 221 211 202 208 206 199 207 223 238 236 246 305 346 6 22 18 16 21 7 359 359 359 0 7 6 10 14
140 275 304 25 120 126 208 155 158 104 29 32 260 286 298 38 67 204 186 194 196 194 198 211 222 225 223 245 288 347 10 26 26 32 31 8 1 358 4 8 6 6 12 13
206 81 209 187 99 51 134 144 76 40 126 298 287 282 242 198 214 209 191 192 191 195 196 213 219 216 213 232 253 317 339 310 10 27 31 20 5 1 5 7 5 7 9 12
138 113 278 47 180 176 108 40 49 106 123 159 284 267 221 208 191 196 203 197 194 198 199 213 215 209 213 222 240 285 314 251 253 350 17 19 16 6 2 1 4 8 11 14
184 136 162 201 306 346 110 162 134 117 209 145 153 275 96 264 211 198 204 199 203 206 207 216 215 211 225 224 243 289 310 248 253 266 313 351 9 16 3 357 0 6 11 14
186 65 62 356 352 358 211 135 101 102 82 187 141 264 357 287 223 204 207 204 209 207 209 216 211 216 230 236 249 284 309 274 254 270 279 305 328 352 355 350 358 3 8 12
114 114 151 188 205 173 185 166 149 123 124 176 228 280 280 233 217 204 209 207 211 208 212 216 212 218 229 240 248 256 280 326 274 276 275 282 304 328 352 357 359 2 3 6
101 134 156 211 247 228 235 203 173 194 169 167 254 213 260 214 211 213 212 209 212 207 213 214 211 220 227 237 247 243 254 276 302 296 270 282 312 315 339 352 355 0 3 3
11 145 123 324 11 10 268 307 180 151 151 270 129 257 228 238 227 222 212 210 215 213 216 212 214 221 227 245 249 242 252 282 307 312 285 292 324 323 351 5 359 2 8 8
79 120 81 261 3 359 347 286 199 192 178 148 170 234 178 198 217 230 219 217 220 221 221 211 220 223 228 248 243 251 260 275 302 303 293 295 326 335 318 336 344 356 358 356
122 97 91 198 24 322 247 310 236 179 205 193 251 256 222 244 236 243 232 225 226 231 229 217 222 222 229 241 236 244 258 274 295 300 296 288 314 323 321 312 317 350 352 335
71 119 80 120 180 280 308 273 126 178 255 203 232 279 175 161 251 261 254 236 246 245 237 224 223 227 234 244 236 239 249 278 298 306 292 283 297 314 324 313 294 312 319 337
56 71 109 117 139 214 246 318 285 111 302 286 220 212 176 151 13 272 282 257 235 238 222 215 219 224 236 239 238 238 252 277 304 308 294 278 272 273 326 343 315 300 308 322
29 18 110 134 180 277 236 155 334 81 238 197 219 228 201 192 235 310 307 209 170 175 188 218 223 233 228 235 244 253 260 275 299 296 299 287 273 269 279 291 293 296 300 306
156 131 177 102 104 280 333 66 128 212 268 220 209 212 226 224 288 312 162 152 158 183 192 217 226 230 215 229 246 258 276 260 280 294 298 294 288 286 290 294 297 295 299 303
230 177 185 175 214 220 179 314 286 259 206 224 222 214 222 221 213 182 175 175 192 208 205 207 216 218 224 237 247 265 271 294 296 295 304 310 304 299 296 294 296 294 291 295
243 190 185 56 265 243 272 302 264 239 208 232 226 215 206 205 187 180 198 197 204 216 220 215 220 233 241 248 257 274 255 273 285 294 299 303 307 311 301 293 293 293 293 293
195 155 176 260 274 267 350 318 311 196 212 239 225 224 210 204 204 206 204 214 224 222 230 231 238 252 267 261 264 272 266 270 280 287 289 291 296 302 305 303 298 292 293 291
193 187 162 219 198 157 57 46 97 180 232 250 249 238 233 224 233 221 215 247 243 230 233 250 256 263 305 289 272 273 271 272 280 285 290 293 297 299 298 298 299 300 294 290